Vertical_Velocity
-2 -2 -0 -2 1 -2 -2 -3 -0 -2 -2 -2 -1 0 1 -0 -2 -3 -4 -2 4 -1 -0 3 1 5 4 -5 0 6 3 3 0 9 -6 -7 -4 0 2 0 -0 2 2 4 -2 4 1 1 0
-0 -1 -1 -0 0 -1 -3 -1 1 -0 -2 -2 -3 -3 -4 -5 1 -3 -1 -3 -3 3 4 10 1 2 1 1 4 7 -1 4 6 -1 -0 3 -7 -0 -0 3 1 -3 3 3 2 -3 1 3 -1
-1 -3 -1 1 -1 -1 -2 -0 2 -3 -4 -4 -3 -3 -4 -1 -2 -3 -1 -9 -7 -3 0 4 3 3 5 -7 -38 1 4 4 0 0 1 4 -5 -4 2 -1 3 1 0 4 -0 0 1 -3 -4
1 -0 -1 -1 -1 1 1 1 -3 -1 -4 -2 -3 -1 -4 4 1 5 3 9 -8 15 -5 14 56 -10 7 -17 16 1 1 -6 7 -4 9 -4 -4 -7 6 0 5 -2 0 4 -0 2 0 -1 -1
-0 -1 0 -1 -1 1 -1 -1 -2 -3 -0 -0 0 -2 0 2 -1 1 4 3 -3 -3 -4 17 9 -43 -10 9 5 -10 4 7 -4 6 -5 2 -5 2 -3 -1 5 2 8 3 -2 4 0 3 2
-2 -0 0 -2 -1 -2 -1 -2 -3 -1 6 2 -1 -1 -3 -3 3 -3 5 4 7 6 -4 1 6 -2 9 7 5 4 4 -0 7 -6 2 -9 -3 3 -3 3 4 6 3 3 4 0 2 2 1
-2 -0 -2 -1 1 -0 -0 -1 -3 -2 -4 -3 -1 -1 -5 2 2 2 3 5 15 13 10 3 1 1 5 5 -1 9 8 3 -3 -5 8 -7 2 -4 -2 6 5 5 0 3 2 5 1 2 3
-3 0 -1 -2 -1 -2 -1 -0 -2 1 -5 -2 2 -5 -6 3 4 1 2 4 3 8 -5 -1 9 1 -1 -3 6 12 10 2 12 -14 10 -1 4 -4 1 3 6 3 6 3 5 -3 1 -0 -0
-2 -0 -2 -3 2 -5 2 -3 1 -3 -4 -4 -1 1 0 -0 -1 -3 2 2 3 6 9 -2 15 6 6 4 4 2 13 11 8 -13 -5 7 4 -6 0 2 10 2 5 1 0 0 2 -0 -1
-2 -4 -1 4 -1 -3 -0 1 0 -3 -3 -4 -2 1 2 0 0 1 2 0 9 3 -2 -1 9 17 11 12 4 1 11 1 8 -31 -3 2 4 -2 1 5 7 8 5 2 4 4 -1 -2 1
-2 -16 9 -1 1 -1 -1 -1 -3 -0 -4 1 -4 4 -0 1 -3 -1 -1 2 2 -1 5 -15 33 -3 32 -6 8 2 41 3 5 2 2 2 4 1 -0 2 0 3 -0 1 2 -1 0 1 1
-3 -6 4 -1 4 -1 1 -1 -4 -1 1 -4 1 0 -0 2 -1 -3 4 2 4 -1 -5 33 16 3 31 50 3 -16 8 3 4 -8 -0 -9 3 1 -4 2 2 6 -2 3 4 0 0 2 1
-4 -4 0 2 1 -1 -2 0 -2 -0 -1 -0 1 4 0 -0 -3 -2 -1 3 2 3 -7 -10 -2 9 -2 -7 -6 -5 -7 7 7 -1 3 3 2 -0 -1 -2 2 2 6 1 0 7 -3 -0 1
-5 -1 3 -4 -2 1 -2 -3 -2 15 2 1 -1 2 -0 1 -3 -4 -1 -5 -4 -2 7 -16 0 -3 8 -2 -1 -2 12 10 3 9 3 -7 3 3 4 -6 -0 4 1 4 2 3 2 1 2
-2 -5 0 3 -4 -1 -2 -12 -8 1 2 -1 -1 2 1 -1 2 -4 -3 0 -2 -3 1 5 -10 2 0 8 2 0 5 11 -6 -8 -5 3 9 4 -1 -1 -4 4 -1 -2 3 1 -1 4 -1
1 -4 0 8 0 -1 4 -26 9 2 2 0 -3 -2 -1 1 1 1 -2 1 -4 0 3 -13 -3 5 2 -0 -8 1 0 4 2 -3 -1 1 -9 2 6 1 1 2 -5 -4 -1 0 2 -3 -6
0 -6 -2 2 3 2 4 -9 6 3 3 3 0 2 -1 2 3 4 -0 3 6 -5 0 4 2 0 -4 1 1 6 6 4 7 5 -9 -15 8 6 4 4 5 3 8 -2 -5 4 2 1 -1
-7 -2 -3 -2 1 1 -2 -9 9 -1 -4 4 4 -1 -2 -1 1 -0 1 -1 5 2 8 -2 -1 1 4 4 -2 2 3 -1 4 11 0 -1 8 8 -1 9 7 2 2 2 0 3 -1 -0 -1
3 -3 -1 -1 5 -3 3 -10 -3 1 -2 3 3 1 -2 1 -1 -1 1 3 -2 -5 -3 9 -9 2 -1 -15 -9 -8 -1 -2 0 -0 8 -2 3 3 1 4 1 1 3 5 7 5 0 1 1
1 1 -9 1 4 1 6 -10 -6 -1 -3 -1 4 3 -1 1 2 1 5 -4 -2 -4 -5 -1 5 -2 18 -6 0 1 -8 -3 4 7 15 -4 4 -4 -9 2 1 0 -6 -5 -2 2 8 2 2
-3 -2 -5 -2 6 3 1 -11 -7 4 -2 -3 4 3 -1 0 3 1 -5 -2 -2 -1 2 -3 -1 -5 -1 8 -3 5 1 -2 -6 -5 -0 -2 -7 3 3 -3 2 2 -4 3 2 6 5 -1 1
4 0 1 3 6 -1 3 -8 -15 -6 -7 -4 1 2 2 -2 -1 -2 -2 -1 3 1 3 3 4 2 -2 5 -0 -8 -0 -5 -8 2 2 -4 6 -2 -5 -5 -4 2 1 1 12 -13 4 4 2
-2 1 4 8 4 3 -6 2 -16 -7 -7 -6 2 3 5 0 3 -0 -4 -3 -2 -3 -4 -1 -2 6 1 -3 -1 -4 -4 -1 5 3 -2 -1 5 1 0 -1 3 -0 1 4 3 6 7 4 2
10 5 2 1 5 4 -9 2 -11 -1 -4 -4 4 -2 0 4 2 2 -2 -2 -5 -1 -4 -7 -2 -7 -1 5 -8 1 1 1 4 2 -2 0 -4 -1 3 7 5 -5 -4 -0 4 2 3 6 3
6 5 2 4 5 -4 -1 5 -25 -10 5 -4 2 8 -1 -3 -3 -1 2 -0 -4 -6 -4 -4 0 6 -3 -1 -5 -2 -5 -1 -1 9 1 1 -0 -1 9 7 3 3 4 -2 -0 -0 1 3 -1
-3 -2 -9 -5 -2 -3 3 -3 -20 -6 1 1 -3 1 -3 -3 -5 -4 1 3 -1 -3 -3 -1 -1 -1 -2 -4 -3 -3 -1 -1 -0 -2 -2 -3 1 2 -1 0 -0 -3 -2 -3 -1 1 3 0 -5
-2 -0 1 4 -1 -1 -2 -7 -6 -12 -2 6 -2 2 3 7 3 0 -2 -1 4 3 -0 -2 -3 -2 -0 -2 -4 -0 -1 -4 -3 -2 -2 -2 -2 -4 -3 -1 -1 -2 -3 0 3 2 -2 -2 -6
2 -0 3 2 1 0 0 -3 -10 -9 -4 3 -1 -1 0 2 2 -1 1 -4 0 -1 2 -3 -4 -4 -0 1 2 -0 -1 -2 -1 -3 -5 -4 0 -2 -1 -3 -5 -3 1 4 2 -2 2 -0 2
-5 0 4 1 6 -2 0 -9 -12 -7 3 2 5 3 1 5 5 7 2 2 -1 -1 -2 2 -0 -3 -4 -2 -1 -2 -0 1 1 -1 2 2 5 1 -3 0 3 1 -0 -4 -6 -4 3 13 6
15 8 12 6 -1 1 -1 -19 1 -13 4 -1 2 3 3 3 2 2 1 3 5 2 -2 3 -2 1 -0 -3 -3 1 1 -2 -4 -2 -17 -6 2 1 5 2 -2 -0 -3 -0 3 -13 -15 5 6
Height
3137 3137 3136 3136 3141 3137 3137 3137 3135 3133 3133 3132 3131 3131 3131 3129 3129 3131 3125 3124 3123 3123 3126 3128 3130 3132 3134 3137 3139 3145 3148 3148 3148 3151 3156 3155 3158 3161 3164 3166 3168 3170 3172 3172 3173 3173 3174 3174 3175
3136 3136 3135 3135 3137 3136 3136 3134 3134 3132 3132 3131 3131 3130 3130 3128 3127 3125 3124 3122 3121 3123 3124 3126 3128 3128 3132 3134 3140 3143 3145 3145 3147 3149 3151 3153 3156 3160 3163 3165 3167 3170 3172 3173 3173 3174 3174 3176 3177
3135 3134 3135 3134 3135 3134 3133 3132 3132 3131 3130 3129 3129 3129 3127 3126 3125 3123 3122 3119 3119 3120 3122 3123 3123 3124 3130 3132 3134 3139 3142 3144 3145 3146 3148 3151 3154 3158 3161 3164 3167 3169 3172 3172 3173 3174 3176 3178 3179
3133 3134 3135 3134 3133 3132 3132 3131 3131 3130 3129 3128 3127 3126 3124 3123 3122 3120 3117 3116 3116 3116 3118 3114 3113 3121 3128 3130 3131 3135 3139 3142 3144 3145 3148 3150 3153 3157 3160 3163 3165 3167 3170 3172 3175 3177 3177 3178 3180
3132 3131 3131 3131 3132 3131 3130 3130 3129 3129 3127 3125 3124 3123 3121 3120 3118 3116 3114 3114 3113 3114 3116 3111 3111 3116 3125 3128 3129 3131 3135 3138 3141 3144 3146 3149 3152 3156 3159 3162 3165 3167 3172 3173 3175 3176 3176 3178 3179
3129 3130 3129 3129 3130 3129 3128 3128 3127 3126 3125 3123 3121 3119 3118 3116 3113 3111 3109 3110 3109 3110 3111 3110 3110 3115 3118 3123 3123 3126 3131 3135 3139 3141 3145 3148 3152 3155 3158 3161 3164 3168 3171 3173 3174 3175 3177 3179 3179
3126 3127 3126 3127 3127 3127 3126 3125 3124 3123 3122 3121 3118 3116 3114 3111 3108 3107 3106 3105 3104 3103 3105 3106 3108 3111 3115 3118 3119 3123 3124 3129 3133 3138 3143 3146 3151 3154 3157 3161 3165 3168 3171 3173 3175 3176 3178 3179 3180
3123 3124 3123 3123 3124 3124 3123 3122 3121 3121 3120 3117 3115 3112 3110 3106 3103 3102 3101 3100 3101 3101 3101 3103 3103 3104 3107 3112 3117 3118 3121 3123 3127 3130 3140 3145 3150 3153 3156 3161 3164 3168 3171 3174 3175 3176 3178 3179 3180
3120 3121 3119 3120 3121 3121 3120 3119 3118 3117 3116 3114 3111 3109 3105 3101 3099 3098 3097 3095 3094 3095 3097 3098 3098 3099 3102 3107 3111 3114 3117 3118 3122 3126 3135 3141 3147 3152 3156 3161 3164 3168 3171 3173 3174 3176 3178 3180 3181
3115 3116 3116 3117 3118 3117 3117 3116 3115 3115 3112 3110 3108 3105 3101 3097 3095 3092 3091 3089 3088 3089 3090 3090 3090 3091 3093 3098 3103 3107 3110 3112 3116 3117 3128 3139 3145 3150 3155 3160 3164 3168 3171 3173 3174 3175 3178 3180 3181
3110 3112 3113 3114 3114 3114 3114 3113 3112 3111 3109 3107 3104 3102 3098 3094 3091 3087 3085 3083 3083 3084 3084 3077 3073 3075 3084 3090 3094 3101 3104 3107 3116 3118 3129 3135 3141 3147 3153 3158 3163 3167 3170 3172 3174 3175 3178 3180 3181
3106 3109 3109 3111 3111 3111 3111 3109 3108 3107 3106 3103 3100 3099 3095 3092 3087 3081 3077 3078 3079 3081 3079 3071 3072 3078 3079 3088 3091 3101 3106 3108 3112 3119 3127 3132 3139 3144 3153 3159 3163 3167 3169 3172 3174 3176 3178 3179 3181
3101 3106 3106 3107 3107 3107 3107 3107 3105 3102 3101 3098 3097 3095 3092 3089 3085 3078 3073 3075 3078 3079 3079 3074 3073 3077 3080 3085 3092 3097 3103 3106 3109 3115 3126 3133 3139 3145 3151 3157 3161 3165 3168 3172 3173 3175 3178 3180 3180
3098 3101 3102 3103 3104 3104 3104 3103 3101 3100 3097 3095 3094 3092 3089 3086 3083 3078 3074 3075 3076 3078 3079 3079 3078 3081 3084 3086 3090 3096 3098 3102 3108 3115 3125 3132 3139 3144 3151 3156 3161 3163 3167 3169 3171 3175 3177 3178 3180
3095 3096 3098 3098 3100 3099 3099 3098 3097 3096 3093 3091 3090 3089 3087 3084 3082 3079 3077 3075 3075 3076 3077 3075 3083 3084 3087 3090 3092 3096 3100 3105 3110 3118 3126 3133 3139 3144 3150 3155 3160 3163 3167 3169 3171 3173 3175 3176 3178
3092 3093 3093 3094 3095 3095 3096 3091 3094 3093 3091 3089 3087 3086 3086 3083 3080 3078 3075 3074 3074 3075 3078 3079 3081 3084 3089 3092 3093 3097 3100 3105 3111 3116 3124 3132 3139 3146 3149 3153 3157 3161 3166 3168 3170 3172 3174 3175 3176
3087 3088 3089 3090 3092 3092 3092 3089 3090 3090 3088 3087 3085 3083 3082 3081 3079 3076 3075 3074 3070 3072 3074 3078 3082 3084 3088 3091 3093 3097 3100 3106 3112 3116 3120 3130 3139 3144 3148 3151 3155 3160 3164 3168 3169 3171 3173 3174 3174
3079 3082 3085 3086 3088 3088 3088 3086 3087 3086 3086 3084 3083 3081 3080 3079 3077 3075 3074 3073 3067 3068 3073 3078 3079 3084 3087 3090 3094 3097 3100 3106 3111 3116 3120 3130 3135 3140 3144 3150 3154 3157 3162 3165 3167 3169 3171 3171 3172
3078 3080 3081 3082 3084 3084 3084 3083 3083 3083 3083 3082 3081 3079 3078 3076 3076 3075 3072 3070 3066 3066 3071 3074 3079 3081 3085 3088 3092 3095 3100 3103 3109 3114 3120 3126 3132 3136 3140 3146 3150 3154 3159 3163 3164 3166 3168 3169 3169
3074 3076 3078 3080 3079 3080 3081 3079 3080 3080 3080 3079 3078 3077 3076 3075 3075 3074 3072 3071 3069 3068 3070 3073 3076 3080 3082 3086 3090 3095 3097 3101 3107 3113 3117 3122 3127 3132 3136 3142 3147 3151 3154 3158 3161 3163 3165 3165 3166
3068 3070 3073 3077 3077 3077 3076 3075 3076 3077 3077 3076 3076 3075 3074 3074 3074 3074 3074 3072 3069 3068 3070 3073 3075 3078 3080 3084 3088 3091 3095 3099 3101 3108 3113 3116 3121 3126 3132 3137 3142 3144 3149 3154 3156 3158 3159 3161 3163
3063 3067 3071 3074 3075 3074 3074 3070 3070 3072 3072 3072 3073 3073 3072 3072 3072 3072 3072 3072 3071 3069 3068 3070 3070 3072 3075 3079 3084 3087 3093 3096 3100 3104 3108 3113 3119 3123 3127 3132 3135 3138 3143 3149 3151 3153 3155 3157 3158
3060 3063 3068 3071 3072 3072 3071 3071 3063 3066 3066 3068 3069 3069 3069 3070 3070 3071 3072 3072 3071 3071 3070 3071 3070 3069 3071 3075 3080 3084 3087 3092 3096 3100 3104 3110 3114 3118 3121 3126 3130 3133 3138 3144 3145 3148 3150 3151 3151
3057 3061 3064 3068 3070 3068 3067 3069 3061 3060 3062 3063 3063 3063 3065 3067 3068 3068 3070 3072 3072 3072 3072 3072 3072 3071 3070 3073 3075 3080 3085 3088 3091 3095 3099 3104 3109 3113 3117 3122 3125 3128 3133 3136 3140 3142 3144 3144 3144
3053 3057 3062 3066 3065 3060 3063 3063 3056 3057 3058 3058 3059 3060 3061 3062 3064 3066 3067 3068 3070 3071 3071 3071 3072 3073 3072 3073 3075 3077 3081 3084 3089 3093 3097 3101 3105 3109 3113 3116 3119 3124 3128 3131 3133 3135 3137 3137 3136
3043 3049 3051 3055 3056 3056 3058 3054 3053 3054 3055 3056 3056 3056 3057 3059 3060 3062 3065 3066 3068 3069 3070 3071 3072 3073 3075 3076 3077 3078 3080 3082 3085 3088 3093 3096 3100 3104 3108 3111 3114 3119 3123 3126 3127 3128 3129 3130 3128
3040 3044 3048 3049 3052 3054 3052 3050 3050 3051 3051 3053 3052 3052 3053 3055 3057 3059 3062 3064 3066 3067 3069 3070 3072 3073 3074 3076 3078 3080 3082 3084 3086 3088 3090 3094 3097 3100 3104 3107 3111 3115 3116 3118 3119 3120 3121 3121 3121
3038 3041 3045 3046 3047 3049 3047 3048 3047 3048 3049 3049 3050 3051 3050 3052 3054 3056 3058 3061 3063 3065 3067 3069 3070 3072 3074 3076 3078 3080 3082 3083 3085 3087 3089 3092 3095 3098 3101 3104 3106 3108 3109 3110 3111 3111 3112 3113 3114
3033 3034 3037 3039 3040 3039 3042 3043 3043 3044 3045 3047 3048 3049 3050 3051 3052 3054 3056 3058 3060 3062 3064 3066 3067 3070 3072 3074 3076 3078 3080 3082 3083 3085 3088 3090 3092 3094 3096 3098 3099 3101 3102 3103 3103 3103 3103 3103 3104
3028 3028 3031 3032 3036 3036 3037 3038 3041 3043 3043 3045 3045 3046 3048 3049 3050 3051 3052 3054 3056 3058 3060 3061 3063 3065 3068 3070 3071 3073 3075 3077 3078 3081 3084 3086 3087 3089 3090 3091 3092 3093 3093 3094 3093 3091 3093 3091 3091